User: anonymous   Login
Location: Sun City Center
(27.6996°N, 82.3528°W)
Time: 06:37:38
(UTC-04:00)
Language:

Cosmos 2084 Rocket - Orbit

View from above orbital plane
View from above orbital plane
View from above satellite
View from above satellite

Ground track
Ground track

The orbit data is extracted from the following two-line orbital elements,

1 20666U 90055D   15087.82346531  .00002633  00000-0  26514-3 0  9997
2 20666 062.7879 334.9434 0092138 026.0159 334.5522 14.90652595340161
Epoch (UTC): 28 March 2015 19:45:47
Eccentricity: 0.0092138
inclination: 62.7879°
perigee height: 531 km
apogee height: 660 km
right ascension of ascending node: 334.9434°
argument of perigee: 26.0159°
revolutions per day: 14.90652595
mean anomaly at epoch: 334.5522°
orbit number at epoch: 34016

The dashed part of the orbit path shows where the satellite is in the earth's shadow,  

DLR